Location: Unspecified
(43.4680°N, 87.1740°E)
Time: 10:36:21
(UTC+00:00)

Cosmos 2297 Rocket - Pass Details

Date: 17 April 2021
Orbit: 838 x 845 km, 71.0° (Epoch: 14 May)

Event Time Altitude Azimuth Distance (km) Brightness Sun altitude
Exits shadow 15:14:09 50° 115° (ESE) 1,061 2.3 -22.6°
Maximum altitude 15:14:21 50° 108° (ESE) 1,059 2.3 -22.6°
Drops below altitude 10° 15:19:47 10° 35° (NE) 2,466 4.7 -23.3°
Sets 15:22:18 0° 30° (NNE) 3,406 5.5 -23.6°
